User: anonymous   Login
Location: Bottom School (historical)
(37.9078°N, 89.3593°W)
Time: 23:43:58
(UTC+00:00)
Language:

AO-27 - Orbit

View from above orbital plane
View from above orbital plane
View from above satellite
View from above satellite

Ground track
Ground track

The orbit data is extracted from the following two-line orbital elements,

1 22825U 93061C   24105.74682582  .00000203  00000-0  95431-4 0  9993
2 22825  98.7954 157.8416 0007326 263.0332  97.0016 14.30456358593810
Epoch (UTC): 14 April 2024 17:55:25
Eccentricity: 0.0007326
inclination: 98.7954°
perigee height: 785 km
apogee height: 795 km
right ascension of ascending node: 157.8416°
argument of perigee: 263.0332°
revolutions per day: 14.30456358
mean anomaly at epoch: 97.0016°
orbit number at epoch: 59381

The dashed part of the orbit path shows where the satellite is in the earth's shadow,  

DLR